Flag for India Weather past 2 weeks in Panipat, Haryana, India

Now
99 °F

Scattered clouds.


Feels Like: 110 °F
Forecast: 85 / 102 °F
Wind: 8 mph from West

Location: New Delhi Palam Airport

Current Time: Jul 5, 2015 at 8:40:21 PM

Latest Report: Jul 5, 2015 at 7:30 PM


Visibility: 2 mi

Pressure: 29.42 "Hg

Humidity: 44%

Dew point: 73 °F

Location of PanipatLocation

Historic Weather in Panipat — Graph

°F

Panipat temperature yesterday

Maximum temperature yesterday: 100 °F (at 3:00 PM)
Minimum temperature yesterday: 81 °F (at 3:00 AM)
Average temperature yesterday: 91 °F

Past Weeks' High & Low Weather Summary

 TemperatureHumidityPressure
High106 °F (Jul 3, 4:00 PM)94% (Jun 26, 2:30 AM)29.74 "Hg (Jun 26, 2:30 AM)
Low73 °F (Jun 25, 3:30 AM)29% (Jul 2, 6:30 PM)29.36 "Hg (Jun 22, 5:30 PM)
Average89 °F59%29.54 "Hg
* Reported Jun 20 6:30 PM — Jul 5 7:00 PM, Panipat, Weather by CustomWeather, © 2015

Note: Actual official high and low records may vary slightly from our data, if they occured in-between our weather recording intervals... More about our weather records

Advertising

Panipat weather history for previous 24 hours

 ConditionsComfort  
Time TempWeatherWind HumidityBarometerVisibility
7:00 PM
Sun, Jul 5
99 °FScattered clouds.9 mph44%29.42 "Hg2 mi
6:30 PM100 °FScattered clouds.10 mph40%29.42 "Hg2 mi
6:00 PM100 °FScattered clouds.10 mph42%29.42 "Hg2 mi
5:30 PM100 °FScattered clouds.12 mph42%29.42 "Hg2 mi
5:00 PM100 °FScattered clouds.10 mph42%29.42 "Hg2 mi
4:30 PM100 °FBroken clouds.9 mph45%29.42 "Hg2 mi
4:00 PM100 °FBroken clouds.9 mph45%29.42 "Hg2 mi
3:30 PM100 °FBroken clouds.9 mph42%29.45 "Hg2 mi
3:00 PM100 °FBroken clouds.12 mph45%29.47 "Hg2 mi
2:30 PM100 °FBroken clouds.10 mph45%29.47 "Hg2 mi
2:00 PM99 °FBroken clouds.9 mph47%29.47 "Hg2 mi
1:30 PM99 °FBroken clouds.12 mph44%29.47 "Hg1 mi
1:00 PM97 °FBroken clouds.8 mph47%29.47 "Hg1 mi
12:30 PM97 °FBroken clouds.12 mph47%29.50 "Hg1 mi
12:00 PM95 °FBroken clouds.12 mph50%29.50 "Hg1 mi
11:30 AM95 °FBroken clouds.9 mph50%29.50 "Hg1 mi
10:30 AM93 °FBroken clouds.9 mph53%29.50 "Hg1 mi
10:00 AM93 °FBroken clouds.9 mph53%29.50 "Hg1 mi
9:30 AM93 °FBroken clouds.9 mph53%29.50 "Hg1 mi
9:00 AM91 °FBroken clouds.9 mph56%29.50 "Hg1 mi
8:30 AM91 °FBroken clouds.9 mph56%29.50 "Hg1 mi
8:00 AM91 °FBroken clouds.9 mph52%29.50 "Hg1 mi
7:30 AM91 °FRain. Cloudy.12 mph46%29.47 "Hg1 mi
7:00 AM91 °FRain. Cloudy.9 mph46%29.47 "Hg1 mi
6:30 AM91 °FRain. Cloudy.9 mph46%29.47 "Hg1 mi
6:00 AM91 °FScattered clouds.9 mph52%29.47 "Hg1 mi
5:30 AM91 °FPassing clouds.9 mph49%29.45 "Hg1 mi
5:00 AM91 °FPassing clouds.9 mph49%29.45 "Hg1 mi
4:30 AM91 °FPassing clouds.9 mph52%29.45 "Hg1 mi
4:00 AM91 °FPassing clouds.9 mph49%29.45 "Hg1 mi
3:30 AM91 °FPassing clouds.9 mph49%29.45 "Hg1 mi
3:00 AM91 °FPassing clouds.5 mph49%29.47 "Hg1 mi
2:30 AM91 °FPassing clouds.5 mph49%29.47 "Hg1 mi
2:00 AM91 °FPassing clouds.No wind52%29.47 "Hg1 mi
1:30 AM91 °FPassing clouds.No wind52%29.47 "Hg1 mi
1:00 AM91 °FPassing clouds.No wind52%29.50 "Hg1 mi
12:30 AM91 °FPassing clouds.5 mph56%29.50 "Hg1 mi
12:00 AM91 °FPassing clouds.5 mph56%29.50 "Hg1 mi
11:30 PM
Sat, Jul 4
91 °FPassing clouds.5 mph56%29.50 "Hg1 mi
11:00 PM91 °FPassing clouds.5 mph56%29.50 "Hg1 mi
10:30 PM91 °FPassing clouds.5 mph56%29.50 "Hg1 mi
10:00 PM91 °FPassing clouds.7 mph52%29.50 "Hg1 mi
9:30 PM95 °FPassing clouds.7 mph47%29.53 "Hg1 mi
9:00 PM95 °FPassing clouds.7 mph47%29.53 "Hg1 mi
8:30 PM95 °FPassing clouds.7 mph47%29.50 "Hg1 mi
8:00 PM95 °FPassing clouds.8 mph47%29.50 "Hg1 mi
Weather by CustomWeather, © 2015

See weather overviewHow to use our weather pages